Location: ECC Obs
(38.4314°N, 90.9815°W)
Time: 19:45:57
(UTC-06:00)

LightSail 2 - Visible Passes

Search period start: 21 February 2020 00:00
Search period end: 02 March 2020 00:00
Orbit: 699 x 722 km, 24.0° (Epoch: 21 February)

Date Brightness Start Highest point End Pass type
(mag) Time Alt. Az. Time Alt. Az. Time Alt. Az.
21 Feb 7.9 03:54:55 10° SE 03:54:55 10° SE 03:55:00 10° SE visible
21 Feb 7.3 05:34:00 10° SW 05:36:42 14° S 05:39:24 10° SSE visible
22 Feb 7.2 04:38:41 15° S 04:38:41 15° S 04:41:07 10° SSE visible
23 Feb 7.3 05:22:30 10° SSW 05:24:14 12° SSW 05:25:59 10° S visible
24 Feb 7.5 04:27:19 12° S 04:27:19 12° S 04:28:07 10° SSE visible
